Location: Casteau
(50.5142°N, 4.0161°E)
Time: 06:08:06
(UTC+00:00)

Vanguard 1 Rocket - Pass Details

Date: 03 August 2021
Orbit: 650 x 4226 km, 34.3° (Epoch: 21 September)

Event Time Altitude Azimuth Distance (km) Brightness Sun altitude
Rises 06:46:30 0° 197° (SSW) 8,454 12.1 22.3°
Reaches altitude 10° 06:55:08 10° 185° (S) 7,235 12.0 23.6°
Maximum altitude 07:09:34 21° 147° (SSE) 5,530 12.1 25.9°
Drops below altitude 10° 07:20:26 10° 107° (ESE) 5,375 13.0 27.6°
Sets 07:25:17 0° 92° (E) 5,823 12.8 28.4°
